RPC2134 RPLL-RPVE

Flight info

Callsign RPC2134
Flight time N/A
Altitude 7000
Route RPVE
Aircraft BE36/L-BDFGLORY/S

Departure

Time N/A
Airport Ninoy Aquino International Airport (RPLL)

Arrival

Time 2026-04-21 22:41
Airport Godofredo P. Ramos Airport (RPVE)
Time Latitude Longitude Altitude Speed Heading
2026-04-21 21:52 14.00626 121.19293 6929 ft 171 kts 156°
2026-04-21 21:52 13.99914 121.19557 6927 ft 171 kts 156°
2026-04-21 21:52 13.98922 121.19925 6929 ft 172 kts 156°
2026-04-21 21:53 13.97796 121.20342 6927 ft 172 kts 156°
2026-04-21 21:53 13.96670 121.20759 6928 ft 172 kts 156°
2026-04-21 21:53 13.95547 121.21176 6927 ft 171 kts 156°
2026-04-21 21:53 13.94424 121.21593 6927 ft 172 kts 156°
2026-04-21 21:54 13.93300 121.22010 6929 ft 172 kts 156°
2026-04-21 21:54 13.92186 121.22423 6925 ft 173 kts 156°
2026-04-21 21:54 13.91055 121.22841 6928 ft 173 kts 156°
2026-04-21 21:54 13.89924 121.23260 6928 ft 173 kts 156°
2026-04-21 21:55 13.88791 121.23680 6927 ft 173 kts 156°
2026-04-21 21:55 13.87661 121.24098 6928 ft 172 kts 156°
2026-04-21 21:55 13.86534 121.24516 6929 ft 172 kts 156°
2026-04-21 21:55 13.85408 121.24932 6927 ft 172 kts 156°
2026-04-21 21:56 13.84282 121.25350 6930 ft 172 kts 156°
2026-04-21 21:56 13.83156 121.25767 6928 ft 172 kts 156°
2026-04-21 21:56 13.82029 121.26184 6928 ft 172 kts 156°
2026-04-21 21:56 13.80903 121.26601 6928 ft 172 kts 156°
2026-04-21 21:57 13.79777 121.27019 6923 ft 172 kts 156°
2026-04-21 21:57 13.78654 121.27433 6966 ft 170 kts 156°
2026-04-21 21:57 13.77536 121.27847 6972 ft 172 kts 156°
2026-04-21 21:57 13.76407 121.28266 6985 ft 173 kts 156°
2026-04-21 21:58 13.75339 121.28655 6976 ft 150 kts 156°
2026-04-21 21:58 13.74328 121.29035 6987 ft 162 kts 155°
2026-04-21 21:58 13.73249 121.29437 7006 ft 168 kts 156°
2026-04-21 21:58 13.72140 121.29846 7015 ft 171 kts 156°
2026-04-21 21:59 13.71017 121.30260 7025 ft 172 kts 156°
2026-04-21 21:59 13.69914 121.30666 7254 ft 159 kts 156°
2026-04-21 21:59 13.68949 121.31020 7748 ft 135 kts 155°
2026-04-21 21:59 13.68052 121.31357 7947 ft 140 kts 155°
2026-04-21 22:00 13.67181 121.31678 8382 ft 123 kts 155°
2026-04-21 22:00 13.66424 121.31961 8789 ft 114 kts 154°
2026-04-21 22:00 13.65671 121.32242 9041 ft 116 kts 154°
2026-04-21 22:00 13.64911 121.32525 9318 ft 116 kts 154°
2026-04-21 22:01 13.64147 121.32808 9598 ft 117 kts 155°
2026-04-21 22:01 13.63380 121.33090 9867 ft 118 kts 154°
2026-04-21 22:01 13.62556 121.33397 9923 ft 135 kts 155°
2026-04-21 22:01 13.61629 121.33739 9929 ft 147 kts 156°
2026-04-21 22:02 13.60655 121.34097 9931 ft 154 kts 156°
2026-04-21 22:02 13.59634 121.34472 9932 ft 158 kts 156°
2026-04-21 22:02 13.58591 121.34855 9929 ft 160 kts 156°
2026-04-21 22:02 13.57533 121.35246 9928 ft 162 kts 156°
2026-04-21 22:03 13.56468 121.35639 9928 ft 163 kts 156°
2026-04-21 22:03 13.55395 121.36035 9923 ft 164 kts 156°
2026-04-21 22:03 13.54318 121.36432 9925 ft 164 kts 156°
2026-04-21 22:03 13.53242 121.36830 9925 ft 164 kts 156°
2026-04-21 22:04 13.52165 121.37228 9929 ft 164 kts 156°
2026-04-21 22:04 13.51089 121.37625 9926 ft 164 kts 156°
2026-04-21 22:04 13.50013 121.38022 9924 ft 164 kts 156°
2026-04-21 22:04 13.48936 121.38420 9924 ft 164 kts 156°
2026-04-21 22:05 13.47858 121.38817 9924 ft 164 kts 156°
2026-04-21 22:05 13.46783 121.39214 9926 ft 164 kts 156°
2026-04-21 22:05 13.45707 121.39611 9924 ft 164 kts 156°
2026-04-21 22:05 13.44646 121.40003 9928 ft 164 kts 156°
2026-04-21 22:06 13.43572 121.40400 9924 ft 164 kts 156°
2026-04-21 22:06 13.42498 121.40796 9928 ft 164 kts 156°
2026-04-21 22:06 13.41429 121.41189 9927 ft 161 kts 156°
2026-04-21 22:06 13.40412 121.41562 9915 ft 148 kts 156°
2026-04-21 22:07 13.39457 121.41917 9909 ft 150 kts 156°
2026-04-21 22:07 13.38443 121.42294 9916 ft 159 kts 156°
2026-04-21 22:07 13.37386 121.42684 9922 ft 163 kts 157°
2026-04-21 22:07 13.36304 121.43082 9931 ft 166 kts 157°
2026-04-21 22:08 13.35204 121.43486 9932 ft 169 kts 157°
2026-04-21 22:08 13.34096 121.43894 9931 ft 170 kts 157°
2026-04-21 22:08 13.32982 121.44305 9928 ft 170 kts 157°
2026-04-21 22:08 13.31863 121.44717 9928 ft 171 kts 157°
2026-04-21 22:09 13.30746 121.45129 9926 ft 171 kts 157°
2026-04-21 22:09 13.29625 121.45542 9927 ft 171 kts 157°
2026-04-21 22:09 13.28504 121.45955 9928 ft 171 kts 157°
2026-04-21 22:09 13.27384 121.46368 9925 ft 171 kts 157°
2026-04-21 22:10 13.26263 121.46781 9928 ft 171 kts 157°
2026-04-21 22:10 13.25159 121.47187 9928 ft 171 kts 157°
2026-04-21 22:10 13.24041 121.47599 9927 ft 171 kts 157°
2026-04-21 22:10 13.22923 121.48011 9931 ft 171 kts 157°
2026-04-21 22:11 13.21803 121.48423 9927 ft 171 kts 157°
2026-04-21 22:11 13.20684 121.48836 9929 ft 171 kts 157°
2026-04-21 22:11 13.19565 121.49248 9931 ft 171 kts 157°
2026-04-21 22:11 13.18446 121.49660 9929 ft 171 kts 157°
2026-04-21 22:12 13.17326 121.50072 9930 ft 171 kts 157°
2026-04-21 22:12 13.16208 121.50483 9930 ft 171 kts 157°
2026-04-21 22:12 13.15090 121.50895 9928 ft 171 kts 157°
2026-04-21 22:12 13.13971 121.51307 9930 ft 171 kts 157°
2026-04-21 22:13 13.12849 121.51720 9931 ft 172 kts 157°
2026-04-21 22:13 13.11727 121.52132 9932 ft 171 kts 157°
2026-04-21 22:13 13.10607 121.52544 9933 ft 171 kts 157°
2026-04-21 22:13 13.09484 121.52957 9931 ft 171 kts 157°
2026-04-21 22:14 13.08362 121.53370 9930 ft 171 kts 157°
2026-04-21 22:14 13.07241 121.53783 9928 ft 171 kts 157°
2026-04-21 22:14 13.06134 121.54191 9928 ft 171 kts 157°
2026-04-21 22:14 13.05012 121.54603 9928 ft 171 kts 157°
2026-04-21 22:15 13.03892 121.55014 9930 ft 171 kts 157°
2026-04-21 22:15 13.02773 121.55426 9931 ft 171 kts 157°
2026-04-21 22:15 13.01653 121.55838 9929 ft 171 kts 157°
2026-04-21 22:15 13.00533 121.56249 9929 ft 171 kts 157°
2026-04-21 22:16 12.99414 121.56661 9929 ft 171 kts 157°
2026-04-21 22:16 12.98290 121.57074 9926 ft 171 kts 157°
2026-04-21 22:16 12.97169 121.57486 9929 ft 171 kts 157°
2026-04-21 22:16 12.96045 121.57899 9926 ft 171 kts 157°
2026-04-21 22:17 12.94923 121.58311 9929 ft 171 kts 157°
2026-04-21 22:17 12.93815 121.58718 9928 ft 171 kts 157°
2026-04-21 22:17 12.92694 121.59130 9929 ft 171 kts 157°
2026-04-21 22:17 12.91574 121.59542 9928 ft 171 kts 157°
2026-04-21 22:18 12.90452 121.59953 9927 ft 171 kts 157°
2026-04-21 22:18 12.89330 121.60366 9925 ft 171 kts 157°
2026-04-21 22:18 12.88208 121.60778 9925 ft 171 kts 157°
2026-04-21 22:18 12.87086 121.61189 9927 ft 171 kts 157°
2026-04-21 22:19 12.85963 121.61602 9930 ft 171 kts 157°
2026-04-21 22:19 12.84840 121.62014 9927 ft 171 kts 157°
2026-04-21 22:19 12.83715 121.62427 9929 ft 171 kts 157°
2026-04-21 22:19 12.82593 121.62839 9927 ft 172 kts 157°
2026-04-21 22:20 12.81469 121.63252 9926 ft 172 kts 157°
2026-04-21 22:20 12.80343 121.63665 9926 ft 172 kts 157°
2026-04-21 22:20 12.79218 121.64078 9924 ft 172 kts 157°
2026-04-21 22:20 12.78093 121.64491 9925 ft 172 kts 157°
2026-04-21 22:21 12.76966 121.64903 9923 ft 172 kts 157°
2026-04-21 22:21 12.75841 121.65316 9925 ft 172 kts 157°
2026-04-21 22:21 12.74716 121.65730 9924 ft 172 kts 157°
2026-04-21 22:21 12.73593 121.66141 9923 ft 172 kts 157°
2026-04-21 22:22 12.72483 121.66548 9921 ft 172 kts 157°
2026-04-21 22:22 12.71345 121.66966 9919 ft 172 kts 157°
2026-04-21 22:22 12.70235 121.67372 9920 ft 172 kts 157°
2026-04-21 22:22 12.69112 121.67784 9922 ft 171 kts 157°
2026-04-21 22:23 12.67988 121.68196 9922 ft 171 kts 157°
2026-04-21 22:23 12.66864 121.68608 9916 ft 172 kts 157°
2026-04-21 22:23 12.65741 121.69020 9918 ft 172 kts 157°
2026-04-21 22:23 12.64617 121.69432 9917 ft 171 kts 157°
2026-04-21 22:24 12.63493 121.69844 9919 ft 171 kts 157°
2026-04-21 22:24 12.62370 121.70255 9918 ft 172 kts 157°
2026-04-21 22:24 12.61248 121.70666 9921 ft 172 kts 157°
2026-04-21 22:24 12.60123 121.71079 9920 ft 171 kts 157°
2026-04-21 22:25 12.59002 121.71489 9918 ft 171 kts 157°
2026-04-21 22:25 12.57880 121.71900 9916 ft 171 kts 157°
2026-04-21 22:25 12.56777 121.72304 9915 ft 170 kts 157°
2026-04-21 22:25 12.55647 121.72718 9915 ft 170 kts 157°
2026-04-21 22:26 12.54530 121.73127 9917 ft 171 kts 157°
2026-04-21 22:26 12.53425 121.73531 9912 ft 171 kts 157°
2026-04-21 22:26 12.52307 121.73942 9914 ft 171 kts 157°
2026-04-21 22:26 12.51188 121.74351 9911 ft 170 kts 157°
2026-04-21 22:27 12.50071 121.74760 9914 ft 170 kts 157°
2026-04-21 22:27 12.48954 121.75168 9914 ft 170 kts 157°
2026-04-21 22:27 12.47837 121.75577 9915 ft 170 kts 157°
2026-04-21 22:27 12.46718 121.75987 9914 ft 171 kts 157°
2026-04-21 22:28 12.45601 121.76396 9912 ft 171 kts 157°
2026-04-21 22:28 12.44479 121.76806 9909 ft 171 kts 157°
2026-04-21 22:28 12.43362 121.77215 9914 ft 171 kts 157°
2026-04-21 22:28 12.42242 121.77624 9912 ft 171 kts 156°
2026-04-21 22:29 12.41121 121.78034 9914 ft 171 kts 156°
2026-04-21 22:29 12.40016 121.78438 9912 ft 171 kts 156°
2026-04-21 22:29 12.38893 121.78848 9914 ft 172 kts 157°
2026-04-21 22:29 12.37768 121.79261 9914 ft 172 kts 157°
2026-04-21 22:30 12.36644 121.79673 9914 ft 172 kts 157°
2026-04-21 22:30 12.35523 121.80081 9945 ft 169 kts 156°
2026-04-21 22:30 12.34425 121.80483 9977 ft 168 kts 157°
2026-04-21 22:30 12.33319 121.80888 9978 ft 169 kts 157°
2026-04-21 22:31 12.32207 121.81294 9978 ft 170 kts 157°
2026-04-21 22:31 12.31087 121.81703 9980 ft 171 kts 157°
2026-04-21 22:31 12.29966 121.82113 9981 ft 171 kts 157°
2026-04-21 22:31 12.28842 121.82523 9985 ft 171 kts 157°
2026-04-21 22:32 12.27742 121.82923 9788 ft 164 kts 157°
2026-04-21 22:32 12.26630 121.83330 9408 ft 169 kts 157°
2026-04-21 22:32 12.25520 121.83736 9123 ft 169 kts 157°
2026-04-21 22:32 12.24418 121.84139 8881 ft 168 kts 157°
2026-04-21 22:33 12.23321 121.84540 8645 ft 167 kts 156°
2026-04-21 22:33 12.22226 121.84939 8415 ft 166 kts 156°
2026-04-21 22:33 12.21506 121.85202 8260 ft 166 kts 156°
2026-04-21 22:34 12.20955 121.85404 8144 ft 164 kts 156°
2026-04-21 22:34 12.19880 121.85795 7760 ft 164 kts 156°
2026-04-21 22:34 12.18814 121.86184 7347 ft 162 kts 156°
2026-04-21 22:34 12.17756 121.86570 6941 ft 161 kts 156°
2026-04-21 22:35 12.16704 121.86954 6550 ft 160 kts 155°
2026-04-21 22:35 12.15658 121.87337 6149 ft 159 kts 155°
2026-04-21 22:35 12.14968 121.87588 5887 ft 159 kts 155°
2026-04-21 22:35 12.13926 121.87969 5513 ft 158 kts 155°
2026-04-21 22:36 12.11871 121.88718 4806 ft 156 kts 154°
2026-04-21 22:36 12.10854 121.89090 4459 ft 155 kts 154°
2026-04-21 22:36 12.09843 121.89458 4123 ft 154 kts 154°
2026-04-21 22:37 12.08839 121.89825 3783 ft 153 kts 154°
2026-04-21 22:37 12.07838 121.90190 3462 ft 152 kts 154°
2026-04-21 22:37 12.06847 121.90552 3146 ft 151 kts 154°
2026-04-21 22:37 12.05861 121.90911 2840 ft 150 kts 154°
2026-04-21 22:38 12.04887 121.91267 2601 ft 150 kts 154°
2026-04-21 22:38 12.03908 121.91624 2363 ft 149 kts 154°
2026-04-21 22:38 12.02932 121.91980 2137 ft 149 kts 154°
2026-04-21 22:38 12.01957 121.92336 1910 ft 149 kts 154°
2026-04-21 22:39 12.00982 121.92691 1690 ft 148 kts 155°
2026-04-21 22:39 12.00022 121.93041 1493 ft 145 kts 155°
2026-04-21 22:39 11.99071 121.93388 1264 ft 145 kts 155°
2026-04-21 22:39 11.98127 121.93731 1091 ft 141 kts 155°
2026-04-21 22:40 11.97254 121.94047 1074 ft 126 kts 155°
2026-04-21 22:40 11.96544 121.94295 1068 ft 90 kts 154°
2026-04-21 22:40 11.96018 121.94481 924 ft 77 kts 152°
2026-04-21 22:40 11.95521 121.94664 721 ft 72 kts 152°
2026-04-21 22:41 11.95082 121.94826 542 ft 65 kts 150°
2026-04-21 22:41 11.94690 121.94964 331 ft 53 kts 153°
2026-04-21 22:41 11.94606 121.94968 0 ft 0 kts 144°